#timestamp,LO_Frequency,Hit 
1503982815.3,286047005.8,P
1503982835.1,286046999.0,N
1503982836.0,286046999.0,N
1503982855.8,286046999.0,N
1503982875.7,286047000.0,N
1503982895.5,286047004.1,N
1503982915.3,286047002.3,N
1503982935.1,286046998.7,N
1503982955.9,286046992.1,P
1503982975.7,286046988.9,N
1503982995.5,286046991.5,N
1503983015.4,286046989.2,N
1503983035.2,286046989.8,N
1503983055.0,286046987.3,P
1503983056.0,286046987.3,P
1503983075.8,286046996.2,N
1503983095.6,286046993.7,N
1503983115.4,286046991.7,N
1503983135.3,286046991.9,N
1503983155.1,286046992.5,N
1503983175.9,286046990.2,P
1503983195.2,286046996.9,P
1503983215.0,286046995.5,N
1503983215.9,286046995.5,N
1503983235.8,286046993.9,N
1503983255.6,286046994.5,N
1503983275.4,286046994.8,N
1503983295.3,286046995.3,N
1503983315.1,286046993.6,P
1503983335.8,286046998.9,P
1503983355.7,286046996.8,N
1503983375.5,286046999.3,N
1503983395.3,286046998.5,N
1503983415.2,286047001.0,N
1503983435.9,286046999.4,N
1503983455.7,286046999.5,N
1503983475.6,286046996.8,N
1503983495.4,286046996.2,N
1503983515.2,286046993.3,P
1503983535.1,286046997.1,N
1503983536.0,286046997.1,N
1503983555.8,286046995.8,N
1503983575.6,286046993.3,P
1503983595.5,286046999.3,N
1503983615.3,286046996.7,N
1503983635.1,286046998.3,N
1503983655.9,286047000.3,N
1503983675.7,286047002.8,N
1503983695.5,286047003.6,N
1503983715.4,286047006.8,N
1503983735.2,286047007.2,N
1503983755.0,286047010.8,N
1503983755.9,286047010.8,N
1503983775.8,286047012.2,N
1503983795.6,286047013.3,N
1503983815.4,286047012.5,N
1503983835.2,286047011.5,N
1503983855.1,286047013.9,N
1503983856.0,286047013.9,N
1503983875.8,286047013.4,N
1503983895.6,286047014.0,N
1503983915.5,286047010.9,N
1503983935.3,286047012.4,N
1503983955.1,286047009.8,N
1503983975.9,286047009.9,N
1503983995.7,286047011.5,N
1503984015.5,286047014.3,N
1503984035.4,286047014.2,N
1503984055.2,286047017.2,N
1503984075.0,286047018.4,N
1503984075.9,286047018.4,N
1503984095.8,286047017.6,N
1503984115.6,286047017.6,N
1503984135.4,286047015.9,N
1503984155.3,286047015.7,N
1503984175.1,286047018.7,P
1503984176.0,286047018.7,P
1503984195.8,286047007.3,N
1503984215.7,286047005.2,N
1503984235.5,286047004.0,N
1503984255.3,286047005.5,N
1503984275.2,286047007.2,N
1503984295.9,286047004.8,N
1503984315.7,286047007.4,N
1503984335.5,286047008.2,N
1503984355.4,286047006.4,N
1503984375.2,286047009.0,N
1503984395.0,286047006.2,N
1503984395.9,286047006.2,N
1503984415.8,286047004.6,N
1503984435.6,286047006.6,N
1503984455.4,286047007.9,N
1503984475.3,286047006.7,N
1503984495.1,286047006.9,N
1503984515.8,286047006.3,N
1503984535.7,286047008.6,N
1503984555.5,286047008.7,N
1503984575.3,286047007.1,N
1503984595.2,286047008.2,N
1503984615.9,286047009.8,N
1503984635.7,286047009.6,N
1503984655.6,286047008.2,N
1503984675.4,286047008.8,N
1503984695.2,286047007.8,N
1503984715.0,286047008.6,N
1503984715.9,286047008.6,N
1503984735.8,286047009.7,P
1503984755.6,286047001.8,N
1503984775.5,286047002.9,N
1503984795.3,286047003.1,N
1503984815.1,286047000.1,N
1503984835.8,286047002.4,N
1503984855.7,286047003.9,N
1503984875.5,286047003.1,N
1503984895.3,286047007.4,N
1503984915.2,286047004.3,N
1503984935.0,286047002.0,N
1503984935.9,286047002.0,N
1503984955.7,286047004.0,N
1503984975.6,286047001.0,N
1503984995.4,286047003.0,N
1503985015.2,286047005.4,N
1503985035.1,286047003.3,N
1503985036.0,286047003.3,N
1503985055.8,286047005.7,N
1503985075.6,286047005.1,N
1503985095.4,286047004.6,N
1503985115.3,286047005.6,N
1503985135.1,286047001.9,N
1503985136.0,286047001.9,N
1503985155.8,286047000.1,N
1503985175.7,286046999.0,N
1503985195.5,286046999.4,N
1503985215.3,286046995.0,N
1503985235.2,286046996.2,N
1503985255.9,286046990.4,P
1503985275.7,286046986.8,N
1503985295.6,286046985.7,N
1503985315.4,286046984.6,N
1503985335.2,286046984.6,N
1503985355.1,286046983.8,N
1503985356.0,286046983.8,N
1503985375.8,286046982.8,N
1503985395.6,286046983.0,N
1503985415.5,286046982.2,P
1503985435.3,286046995.3,N
1503985455.1,286046995.9,N
1503985475.9,286046997.6,N
1503985495.7,286046995.2,N
1503985515.5,286046994.4,N
1503985535.4,286046991.9,N
1503985555.2,286046990.2,N
1503985575.0,286046991.7,N
1503985575.9,286046991.7,N
1503985595.8,286046993.4,N
1503985615.6,286046996.3,N
1503985635.4,286046994.7,N
1503985655.2,286046991.8,N
1503985675.1,286046993.7,N
1503985676.0,286046993.7,N
1503985695.8,286046994.0,N
1503985715.6,286046995.4,N
1503985735.5,286046995.4,N
1503985755.3,286046992.4,N
1503985775.1,286046994.3,N
1503985795.9,286046992.2,N
1503985815.7,286046993.2,N
1503985835.5,286046991.2,N
1503985855.4,286046995.7,N
1503985875.2,286046998.6,N
1503985895.0,286047000.7,N
1503985895.9,286047000.7,N
1503985915.8,286047002.1,N
1503985935.6,286047006.0,N
1503985955.4,286047003.4,N
1503985975.3,286047005.1,N
1503985995.1,286047005.8,N
1503985996.0,286047005.8,N
1503986015.8,286047006.7,N
1503986035.6,286047010.2,N
1503986055.5,286047012.0,N
1503986075.3,286047008.1,N
1503986095.1,286047010.7,N
1503986115.9,286047010.7,N
1503986135.7,286047011.5,N
1503986155.5,286047009.3,N
1503986175.4,286047010.5,N
1503986195.2,286047010.5,N
1503986215.0,286047008.9,N
1503986215.9,286047008.9,N
1503986235.8,286047008.0,N
1503986255.6,286047006.4,N
1503986275.4,286047004.9,N
1503986295.3,286047008.1,N
1503986315.1,286047008.5,N
1503986316.0,286047008.5,N
1503986335.8,286047007.6,N
1503986355.7,286047006.7,N
1503986375.5,286047008.6,N
1503986395.3,286047010.6,P
